Погода в Ице

Погода в Ице : погода сейчас, прогноз погоды и архив. Всё, что Вы хотите узнать о погоде в Ице!

Хотите узнать прогноз погоды в Ице? Тогда Вам сюда: Погода в Ице

Поиск расширенной информации на нашем сайте:

Другие новости

Новости СМИ2

Главная страница сайта

Новости сайта

02.10.2013

Напоминаем, что на нашем новом сайте вы можете получить высокодетализированные прогнозы погоды по пунктам России, СНГ и мира (включающие важные для авиации метеовеличины, такие как направление и скорость ветра, видимость, явления погоды, количество и форма облачности, нижняя и верхняя граница облачности), а также ознакомиться с разнообразными материалами по авиационной метеорологии и подборкой полезных ссылок на эту тему.

Сайт Метеоцентр.Азия посвящён разработке технологий оптимизации авиаметеорологического обслуживания, включая проектирование и перспективное создание нескольких автоматизированных авиаметеорологических систем:
- система выпуска высокодетальных прогностических карт явлений погоды для нижнего воздушного пространства по России и ближнему зарубежью;
- система верификации прогнозов TAF (выпускаемых синоптиками официальных АМСГ РФ и ближнего зарубежья) и AUTOTAF (выпускаемых сайтом Метеоцентр.Азия) - выявление ошибок, онлайн-сопоставление с фактической погодой METAR, автоматическое внесение коррективов в прогнозы при резком отклонении фактической погоды от прогноза, подсчёт оправдываемости прогнозов по элементам и в целом;
- система обработки, анализа и отображения авиаметеорологической информации для применения провайдерами метеорологической информации.

Рекомендуем: Где заказать кухню недорого.

Погода в Ице - сегодня

Время (UTC), дата Ветер
(°,м/с) 
Видим.   Явления Облачность Т
(°С)
Тd
(°С)
f(%) Тe
(°С)
Pmin
(гПа)
dP
(гПа)
Po
(мм)
O2
(г/м3)
Тmin Tmax R s Состояние
почвы
03 27.03.17 180 (Ю) 20000 м    10/10 300 м 
[St]
-3.2 -3.7 96 -5  1009.5  -0.6  756  309           
06 27.03.17 250 (З) 20000 м    9/9 300 м 
[St]
-3.3 -3.6 98 -3  1009  -0.3  756  309           
12 27.03.17 230 (ЮЗ) 0500 м  туман  ?/?  
-5.5 -5.5 100 -5  1009.2  756  312           
15 27.03.17 200 (Ю) 0500 м  туман  ?/?  
-6.8 -6.8 100 -6  1008.8  -0.4  756  313           
18 27.03.17 200 (Ю) 0500 м  туман  ?/?  
-7.6 -7.6 100 -7  1008.6  -0.2  756  314           
21 27.03.17 230 (ЮЗ) 0500 м  туман  ?/?  
-4.4 -4.4 100 -4  1009.5  0.9  757  310  -8.3      81  неравномерный
мокрый или
старый снег
100% 
00 28.03.17 140 (ЮВ) 20000 м    10/10 300 м 
[St]
-3.4 -3.4 100 -6  1009.5  757  309           
03 28.03.17 140 (ЮВ) 20000 м    10/10 300 м 
[St]
-2.8 -3.1 98 -5  1008.6  -0.9  756  308           
06 28.03.17 140 (ЮВ) 20000 м    10/10 300 м 
[St]
-2.7 -3 98 -5  1008.1  -0.5  756  308           
09 28.03.17 360 (С) 20000 м    8/0 верхняя 
[Ci fib]
-5.4 -5.4 100 -7  1008.5  0.4  756  311    -2.1       
12 28.03.17 020 (С) 20000 м    9/0 верхняя 
[Ci fib]
-4.9 -5 99 -6  1008.4  -0.1  756  311           
15 28.03.17 050 (СВ) 0500 м  туман  ?/?  
-5.3 -5.3 100 -5  1007.7  -0.7  755  311           
18 28.03.17 050 (СВ) 0500 м  туман  ?/?  
-8.8 -8.8 100 -9  1007.6  -0.1  755  315           
21 28.03.17 050 (СВ) 20000 м  {туман}  9/0 верхняя 
[Ci fib]
-8.9 -9 99 -11  1008  0.4  755  316  -9      81  неравномерный
мокрый или
старый снег
100% 
00 29.03.17 050 (СВ) 20000 м    8/0 верхняя 
[Ci fib]
-5.1 -5.3 98 -6  1008.8  0.3  756  311  -9.5         
03 29.03.17 070 (В) 20000 м    6/0 верхняя 
[Ci fib]
-1.2 -5 75 -4  1007.9  -0.4  755  306           
06 29.03.17 050 (СВ) 20000 м    8/0 верхняя 
[Ci fib]
-0.7 -1.9 92 -3  1007.7  -0.2  755  305           
09 29.03.17 050 (СВ) 20000 м    9/0 
-4.9 -5 99 -4  1008.6  0.9  756  311    +0.1       
12 29.03.17 050 (СВ) 20000 м    10/10 300 м 
[St]
-4 -4.3 98 -5  1008.5  -0.1  756  310           
15 29.03.17 050 (СВ) 20000 м    10/10 300 м 
[St]
-6.2 -6.2 100 -9  1008.3  -0.2  756  312           
18 29.03.17 050 (СВ) 20000 м    10/10 300 м 
[St]
-4.5 -4.9 97 -6  1008.6  0.3  756  310           
21 29.03.17 050 (СВ) 20000 м    9/9 300 м 
[St]
-5.6 -6.2 96 -8  1009.5  0.9  757  312  -6.7      81  неравномерный
мокрый или
старый снег
100% 
00 30.03.17 050 (СВ) 20000 м    8/6 300 м верхняя 
[St|Ci fib]
-0.5 -3 83 -2  1010.1  0.6  757  306           
03 30.03.17 050 (СВ) 20000 м    10/10 300 м 
[St]
-0.6 -1 97 -2  1010.1  757  306           
06 30.03.17 050 (СВ) 20000 м    10/10 300 м 
[St]
-0.6 -1 97 -2  1010.3  0.2  757  306           
Время (UTC), дата Ветер
(°,м/с) 
Видим.   Явления Облачность Т
(°С)
Тd
(°С)
f(%) Тe
(°С)
Pmin
(гПа)
dP
(гПа)
Po
(мм)
O2
(г/м3)
Тmin Tmax R s Состояние
почвы

Для получения пояснительной информации подведите курсор к названию столбца.

ПОГОДА в Ице - архив

Всё, что Вы хотите узнать о погоде в Ице - удобно и подробно!

Выберите нужную дату (начиная с 1 января 2015* года) и нажмите кнопку "Найти".
Будут отображены архивные сводки погоды по пункту Ица, начиная с указанной даты.


Отображать данные в формате CSV (для использования в таблицах Excel)


Внимание! Наш архив погоды предназначен исключительно для личного некоммерческого использования в познавательных целях. Если Вам необходимы официальные справки о состоянии погоды (для производственных, юридических, коммерческих и т.п. целей), обращайтесь в органы Росгидромета.

*Примечание: данная дата относится к архиву по метеостанциям СССР (Россия, СНГ, Балтия).
Архив по метеостанциям Зарубежной Европы и Азии (кроме Китая) хранится 10 дней, по другим регионам земного шара (Китай, Африка, Америка, Австралия, Океания) - 1 день.

Ица - район местоположения метеостанции


Название, широта, долгота, высота метеостанции:
Ица 55.6°ш. 155.6°д. 6 м над ур. моря [Российская Федерация]

Дополнительная информация

В oтличие oт бoльшинства пoгoдных сайтoв мы публикуем пoдрoбную метеoинфoрмацию в детальнoм прoфессиoнальнoм фoрмате.

Характеристики температуры и влажнoсти вoздуха измеряются на высoте 2 м в тени вдали oт зданий и деревьев.
Скoрoсть ветра измеряется на высoте 10 м (на урoвне рoста челoвека скoрoсть ветра ниже в 1.5-2 раза). Если метеoстанция нахoдится в гoрoде или в лесу, тo скoрoсть ветра занижена на 2-4 м/с пo сравнению с oткрытым местoм. Скoрoсть ветра над акватoриями крупных рек и oзёр, а также на вершинах хoлмoв на 2-5 м/с выше, чем в oбычных услoвиях.
Атмoсфернoе давление в разных тoчках местнoсти мoжет значительнo oтличаться oт давления на метеoстанции, в зависимoсти oт услoвий рельефа (при пoдъёме на 10 м давление пoнижается примернo на 1 мм рт.ст.).